Wind_Speed
54 55 57 58 59 60 62 62 60 62 66 65 65 66 65 66 66 63 63 60 53 52 53 51 50 50 50 50 47 46 45 44 42 40 40 40 39 38 34 30 29 30 32 31 29 27 25 24 22 21 21 21 24 25 25 25 24 24 24 24 24 24 25 25 25 25 23 22 21 21 22 22 24 24 24 24 23 23 24 26 26 24 23 23 24 25
57 58 57 55 55 57 59 60 59 61 64 63 64 65 65 66 66 62 62 59 51 50 51 51 51 49 47 48 47 47 47 45 44 42 39 37 36 34 30 28 28 31 31 29 27 25 24 24 23 23 23 24 25 26 25 25 24 24 24 24 24 25 26 26 25 23 21 20 20 20 22 22 22 23 23 22 22 24 26 27 26 23 22 23 25 26
61 60 55 53 55 57 59 59 58 61 63 63 63 63 63 64 63 61 60 57 51 49 50 50 51 49 46 46 46 47 47 46 44 42 38 36 34 32 30 29 30 31 30 27 24 22 23 24 24 25 26 26 26 26 25 24 24 24 24 23 24 25 25 24 23 21 20 20 20 21 22 21 21 21 21 21 23 25 25 25 24 23 23 24 25 26
63 58 53 53 56 58 60 60 60 61 63 62 61 61 61 61 61 61 58 55 53 49 49 49 50 48 46 46 47 47 48 47 45 43 40 38 36 33 31 31 32 31 28 25 23 22 23 24 26 27 27 27 26 26 25 23 24 24 24 24 24 24 22 22 21 20 19 19 20 21 21 20 20 20 22 22 24 24 23 23 23 23 24 24 24 25
60 55 53 56 56 58 60 61 60 60 61 60 59 58 58 59 60 59 56 53 52 49 49 51 50 48 47 47 47 47 49 49 47 46 43 41 39 36 35 34 33 31 28 25 23 24 25 26 28 28 28 27 27 26 24 23 25 25 24 24 23 22 22 22 22 20 20 21 22 21 20 20 20 22 23 23 24 24 23 23 23 23 24 23 23 23
59 58 58 57 56 59 60 60 60 60 60 60 60 59 59 60 59 56 55 52 50 50 51 51 49 48 48 47 46 48 50 50 49 48 46 43 40 38 37 36 34 31 27 24 25 26 26 27 28 28 28 28 27 26 23 24 27 25 25 25 23 23 23 23 23 23 23 24 23 21 20 20 22 23 24 24 25 24 23 24 24 24 25 24 23 21
60 62 62 58 58 59 58 59 60 60 60 60 60 60 59 61 58 54 54 51 50 50 50 50 49 48 48 47 47 49 50 50 49 48 46 44 41 40 38 36 33 29 25 24 26 27 26 26 27 28 29 28 28 26 24 27 29 26 24 25 25 25 25 24 23 24 24 23 23 21 19 20 22 23 23 24 25 24 23 24 25 25 26 26 25 23
62 65 64 61 59 58 57 59 60 59 60 59 59 59 58 58 55 52 51 48 46 47 48 49 49 48 48 48 48 49 49 50 49 48 46 45 43 42 39 35 31 26 23 25 27 26 25 26 28 29 29 29 28 26 24 26 28 26 25 27 27 26 25 25 24 24 24 23 22 20 19 20 21 22 23 24 24 25 25 24 25 27 28 27 27 27
62 66 67 63 58 57 57 59 58 59 58 57 58 58 56 55 52 49 48 46 45 46 50 51 49 50 50 48 48 48 49 50 49 48 47 47 45 42 38 34 29 25 25 27 27 26 26 27 29 29 28 27 25 24 24 25 26 26 27 26 23 21 22 24 24 24 24 22 21 19 19 20 21 23 24 24 24 25 25 25 26 28 28 28 27 25
63 67 67 63 58 56 57 58 58 58 57 56 59 57 54 52 49 48 47 45 46 51 52 51 51 51 51 50 49 49 50 50 50 49 48 47 45 41 36 33 28 26 26 28 27 27 29 29 30 29 26 25 23 22 23 24 24 26 26 23 20 20 22 22 23 23 22 21 20 19 19 20 21 23 25 24 25 26 26 26 27 27 27 27 25 23
63 67 67 64 58 56 56 57 59 58 55 56 58 55 51 49 47 47 46 45 49 53 51 49 51 52 51 50 48 48 49 50 50 49 46 45 43 40 36 32 27 26 26 27 28 29 30 30 29 27 24 23 22 20 20 23 24 25 26 24 22 23 23 22 22 21 20 19 19 19 19 21 22 23 23 23 25 26 26 25 26 26 25 25 24 22
57 62 67 65 60 58 56 57 59 57 56 57 56 52 49 47 46 45 47 49 52 52 49 49 52 52 52 50 47 47 48 48 47 45 43 42 41 39 36 31 27 26 27 29 29 29 29 29 27 25 23 22 21 20 21 24 25 25 27 26 22 22 23 22 22 22 20 19 20 20 19 20 22 23 23 23 23 24 24 24 25 24 22 23 23 21
50 52 63 65 60 59 58 59 61 58 57 57 52 50 49 47 47 47 49 51 51 49 48 50 52 52 52 50 49 48 47 45 44 43 41 40 39 37 34 30 27 28 30 31 30 29 28 27 25 23 22 22 22 22 23 25 26 27 28 24 20 22 23 22 23 22 20 20 22 21 20 20 22 22 23 23 22 22 22 22 24 24 23 23 21 19
45 42 57 65 61 60 60 60 61 60 59 56 52 52 51 50 50 50 51 51 49 49 49 50 53 53 51 50 50 47 44 43 43 42 41 38 37 36 32 30 30 31 33 32 31 29 28 26 24 23 23 23 23 24 25 26 27 28 28 24 21 24 25 23 23 22 21 21 23 22 20 21 22 22 20 20 19 20 20 20 22 23 23 20 17 17
42 38 51 62 61 61 60 58 58 57 56 54 52 52 50 50 51 51 51 51 50 50 52 52 54 52 50 50 49 44 42 42 42 41 40 38 38 37 35 34 34 34 34 32 31 29 28 26 25 24 24 25 25 25 26 28 28 29 29 26 24 25 26 26 24 23 22 21 22 21 19 19 21 20 19 18 17 18 18 19 21 23 22 18 17 18
42 37 44 55 59 59 57 56 56 54 53 52 52 52 49 45 48 51 51 51 50 52 54 53 52 51 50 50 48 43 41 42 42 42 41 42 41 40 39 37 36 36 35 33 32 30 28 27 26 25 25 26 27 27 28 30 30 31 30 28 26 26 26 26 25 24 22 22 22 20 18 19 19 19 19 17 17 19 19 19 21 22 20 19 18 16
41 40 43 51 57 57 55 55 56 54 52 52 53 53 48 42 46 52 52 52 54 54 54 51 51 52 52 51 48 43 42 43 43 44 44 44 42 40 39 38 38 38 36 34 32 30 29 28 26 25 26 28 28 29 30 31 32 33 32 29 27 26 26 25 25 24 23 23 22 19 19 20 19 18 17 15 16 19 19 20 21 20 18 17 15 14
37 40 46 51 55 57 54 52 54 52 49 50 53 54 48 43 50 55 52 53 56 54 52 49 50 51 50 50 45 41 43 43 43 44 44 42 40 39 40 39 39 38 36 35 33 31 29 28 26 26 27 29 30 31 32 32 33 33 31 29 27 26 25 25 24 23 22 22 21 19 19 18 16 15 14 12 13 15 15 16 16 15 14 14 13 14
32 38 47 51 52 54 53 51 52 53 51 50 51 53 51 50 54 56 54 55 56 54 51 49 49 49 49 47 43 40 42 43 42 43 43 41 40 39 40 40 39 38 37 35 33 30 28 26 25 26 28 30 31 31 31 31 32 32 30 29 27 25 24 23 22 22 22 22 21 20 19 18 16 13 12 12 11 11 11 12 14 14 13 13 14 14
32 37 46 50 49 48 50 52 52 54 56 55 53 53 54 52 51 54 54 53 52 51 50 48 48 49 48 46 42 40 42 42 41 42 42 41 39 38 39 40 38 38 36 33 31 28 26 24 25 27 28 29 30 31 30 30 30 30 29 28 26 24 22 22 23 23 22 21 20 19 18 18 16 13 13 13 11 10 11 12 14 14 13 13 14 14
32 35 43 47 46 45 49 51 52 53 53 54 56 55 55 52 51 52 52 49 47 47 49 47 46 47 47 46 43 40 41 42 41 40 39 39 39 39 39 39 37 36 34 31 29 27 24 25 26 26 27 28 30 29 29 30 29 28 27 26 25 24 23 23 23 22 21 20 20 18 17 18 17 15 15 16 15 14 13 13 13 13 13 14 14 15
31 32 38 45 44 44 46 46 49 52 51 52 54 53 52 52 52 52 52 51 47 45 46 46 44 44 44 43 39 37 38 39 39 37 37 37 38 39 39 38 37 35 33 31 28 26 25 26 26 26 26 28 29 29 29 30 28 27 26 25 24 24 23 23 22 20 18 17 17 17 17 18 18 18 17 17 16 15 13 13 13 13 14 15 15 16
31 29 34 43 42 39 41 42 46 49 51 53 52 50 50 50 51 52 51 50 49 48 47 46 42 40 41 40 36 34 34 36 36 36 36 37 39 40 40 39 37 35 34 31 28 27 28 28 28 26 27 29 30 30 31 31 29 27 25 24 23 23 23 22 21 18 16 14 15 15 15 16 17 17 17 17 16 14 13 13 13 14 15 16 16 17
32 27 28 38 39 37 39 42 45 49 52 54 51 51 52 51 51 51 45 43 48 48 44 44 41 36 34 34 34 33 32 32 34 36 37 39 40 41 40 39 38 36 34 30 28 29 30 30 30 29 30 32 32 32 32 32 31 28 25 23 23 23 23 22 20 17 16 15 14 14 15 15 16 16 15 15 14 13 13 13 14 16 17 17 18 18
32 25 26 34 36 37 41 43 46 50 53 52 51 54 56 54 52 52 46 42 45 46 42 38 36 35 33 29 29 31 30 30 33 35 37 38 39 40 40 39 38 36 33 30 30 31 32 31 31 31 33 35 34 34 34 33 31 28 25 24 24 23 23 22 20 18 16 16 15 15 15 15 14 14 13 13 13 14 14 15 16 18 18 19 20 20
30 24 26 31 32 36 41 44 47 51 52 51 51 52 54 53 53 54 51 43 40 43 44 35 26 28 32 28 25 27 29 29 32 34 36 38 39 40 40 39 38 36 33 31 32 33 32 32 33 33 35 35 35 35 34 32 32 28 25 24 24 23 23 22 20 18 17 16 16 15 15 14 14 13 13 13 14 15 16 17 18 19 19 20 20 20
29 24 23 26 28 31 36 40 45 49 52 53 52 51 50 50 50 51 51 45 39 40 42 36 27 23 26 27 23 23 27 30 33 34 35 37 38 39 39 38 37 35 33 33 33 33 33 33 34 33 34 34 34 34 33 32 31 28 26 25 24 23 23 22 20 18 17 17 16 16 15 14 14 13 13 13 14 15 16 17 18 19 20 20 20 20
27 23 22 25 28 30 34 39 43 47 50 51 52 52 51 50 49 48 47 44 42 38 33 32 30 23 22 25 23 22 25 30 32 33 33 34 35 36 37 36 35 33 32 33 33 33 33 32 31 30 31 31 31 31 30 29 29 27 26 26 25 24 23 22 20 18 17 17 17 16 15 14 14 14 14 14 14 15 16 17 19 20 20 21 21 21
23 24 23 24 26 28 32 37 40 42 45 47 49 50 50 50 49 47 44 42 43 38 29 25 26 24 23 25 24 23 26 29 31 31 32 33 35 36 36 35 33 32 32 33 32 31 29 27 26 26 27 26 26 26 26 26 26 26 26 25 24 24 23 21 20 19 18 17 17 16 16 15 15 14 14 15 15 16 17 18 19 20 21 21 22 23
21 23 22 22 22 25 29 33 36 39 43 45 46 46 46 48 47 46 45 43 42 40 34 30 29 26 25 26 25 24 27 30 31 31 32 34 35 35 35 34 32 32 32 32 30 27 25 25 25 25 24 23 23 23 24 25 25 24 25 25 24 23 22 21 20 19 18 18 18 17 17 16 16 15 15 16 16 16 17 18 19 20 21 22 23 24
21 22 21 20 20 23 27 31 33 36 40 42 44 45 45 45 46 45 44 43 41 38 36 34 30 26 25 26 26 26 29 31 32 33 34 35 35 35 34 32 32 32 31 29 26 24 24 25 24 22 21 21 22 23 24 24 24 24 25 24 23 22 22 22 21 20 19 19 18 18 17 16 16 16 16 16 17 17 18 18 19 20 20 21 23 25
20 21 21 20 19 21 25 28 30 32 35 38 41 43 44 44 44 43 42 41 39 36 34 32 28 27 27 27 28 30 31 32 33 34 35 35 35 34 32 31 32 31 29 27 24 24 24 23 21 20 19 19 20 20 21 22 22 23 22 22 21 21 21 21 20 20 20 19 19 18 17 17 17 17 17 17 18 18 18 18 19 19 20 22 23 25
19 22 21 19 18 20 23 25 26 29 33 37 40 41 41 41 41 40 40 39 36 34 32 30 28 29 30 29 30 32 33 34 35 35 35 35 35 33 32 32 32 29 27 25 24 23 23 22 21 21 20 19 19 19 19 19 20 20 20 19 20 19 19 19 19 20 19 19 18 18 18 18 18 18 18 18 19 19 19 19 20 21 22 23 24 26
19 22 21 19 19 20 22 23 25 29 33 36 38 38 38 38 37 37 37 35 33 32 31 30 30 31 32 31 32 33 33 35 35 34 34 34 34 34 34 33 30 28 28 27 25 25 24 23 22 21 20 20 20 20 20 20 20 21 20 20 19 19 19 20 20 20 19 19 19 19 19 19 19 19 19 19 20 20 20 21 21 22 23 25 26 27
19 23 22 20 20 21 23 23 25 28 31 31 32 34 36 35 33 33 32 32 32 31 29 29 31 32 32 32 32 33 34 34 34 33 33 34 34 34 32 29 28 29 30 28 26 26 25 23 22 22 21 21 21 22 22 22 22 22 23 22 21 21 21 21 21 20 20 19 19 19 20 20 20 19 19 20 21 21 21 22 22 23 24 26 27 29
19 22 23 22 21 22 23 23 24 25 25 26 29 32 33 33 32 32 31 31 32 31 29 31 34 34 33 32 31 32 33 33 33 32 32 33 33 32 30 28 28 30 31 30 28 27 26 25 25 24 23 23 23 24 24 24 24 25 25 25 24 23 22 22 22 21 21 21 21 21 21 21 21 21 21 22 23 23 22 23 23 24 25 27 29 30
18 22 23 24 23 23 24 23 21 21 22 25 28 29 30 31 32 32 31 31 32 31 31 33 35 36 35 33 31 32 33 33 33 32 32 32 32 32 31 31 30 31 32 32 31 29 28 28 27 25 25 25 25 25 25 26 26 26 26 26 25 23 23 22 22 22 22 23 23 23 23 23 23 23 23 24 25 24 24 25 25 26 27 28 29 29
19 22 24 24 24 24 24 23 20 20 21 23 25 27 28 28 28 28 28 28 28 30 32 32 33 36 36 33 32 32 32 33 32 32 32 32 32 32 32 31 31 30 30 30 29 28 28 26 25 26 26 27 27 26 27 27 28 27 26 25 25 24 23 23 23 24 24 25 25 24 25 25 25 25 25 25 25 25 26 27 27 28 28 28 28 28
19 22 24 24 24 24 23 23 21 21 20 20 22 24 25 25 26 25 25 25 26 30 33 32 32 36 36 33 32 32 32 33 33 34 34 33 32 32 32 31 31 29 28 27 27 27 25 24 24 25 26 27 28 28 28 28 28 27 26 25 24 24 24 25 25 26 26 26 25 25 25 26 26 25 25 26 26 27 27 28 28 28 29 29 29 28
18 21 23 23 24 24 22 21 20 20 19 19 21 23 23 24 25 25 25 24 24 29 34 33 32 35 36 35 33 32 32 33 32 32 33 32 30 30 31 30 30 27 25 25 25 25 24 24 24 25 25 25 25 26 27 27 27 26 24 23 23 23 24 25 26 27 27 26 25 25 25 26 26 26 26 27 27 27 28 28 28 28 29 29 29 28
18 20 22 22 23 23 21 18 19 20 19 18 19 21 23 24 25 25 25 23 22 25 31 35 34 35 35 35 34 31 32 33 31 29 30 30 29 30 31 31 30 28 26 26 26 26 26 25 25 24 21 18 18 19 21 22 23 22 22 21 21 22 23 25 25 26 26 26 25 25 26 26 26 27 27 28 28 29 30 30 30 31 31 30 29 29
19 18 20 21 22 23 22 18 17 19 18 17 18 20 22 25 26 26 25 23 21 22 26 31 35 36 36 35 33 30 31 32 31 30 30 31 31 33 33 32 31 29 27 26 26 27 27 26 25 22 17 16 16 17 19 20 20 20 20 21 22 22 23 24 25 26 27 27 27 27 27 27 27 28 29 31 32 32 33 33 32 33 32 31 30 29
17 17 18 21 22 22 21 19 18 20 20 18 19 20 23 27 28 27 25 24 23 21 21 25 30 33 34 33 32 29 28 30 31 31 33 34 34 34 33 31 29 27 26 26 26 26 26 27 26 23 19 17 18 19 21 22 23 23 23 23 23 24 24 26 27 28 29 30 31 31 30 29 29 30 32 33 34 35 35 34 34 34 33 32 31 30
14 16 17 22 23 22 22 21 20 20 21 20 20 21 23 26 27 26 25 25 24 24 23 22 24 27 29 31 32 31 30 29 30 32 35 36 35 34 32 29 27 26 27 28 28 27 27 28 28 26 23 21 21 22 23 25 26 27 27 27 27 27 28 29 31 32 33 34 34 33 33 32 32 32 34 36 36 36 36 35 34 34 33 33 31 30
12 14 15 20 23 21 21 22 20 20 21 21 21 22 22 23 24 25 27 27 26 25 25 25 25 26 28 31 32 33 32 31 30 30 33 34 34 33 31 27 25 26 28 28 27 27 28 29 30 29 26 24 25 25 26 27 28 30 30 30 30 31 32 33 34 35 36 36 36 36 36 36 36 36 37 37 37 36 35 35 34 34 34 33 32 31
9 11 12 17 20 18 18 20 19 19 21 22 22 22 22 22 24 25 26 27 27 26 26 26 27 28 30 32 33 33 33 33 32 31 31 31 31 31 29 26 25 25 26 26 26 26 29 30 31 30 28 28 28 29 30 30 30 31 32 32 33 33 34 35 36 38 39 39 39 40 40 40 39 40 41 41 39 37 36 35 34 34 34 34 33 32
7 8 10 13 16 17 17 18 17 17 19 21 21 22 22 22 24 25 25 26 27 27 26 27 27 29 30 33 33 33 33 34 34 33 32 31 31 30 29 27 26 26 26 27 28 29 30 31 32 32 32 32 33 34 34 32 32 33 34 34 35 37 38 38 39 41 42 43 43 43 44 44 43 42 40 39 38 38 37 37 35 34 33 33 34 33
6 9 11 12 14 15 16 16 16 16 17 18 19 22 23 23 23 24 25 25 26 26 26 26 27 28 29 31 33 33 33 34 34 34 33 32 32 31 30 30 29 29 30 30 31 32 33 34 35 36 36 37 38 38 35 34 34 35 36 37 38 39 40 41 42 43 45 46 46 46 46 47 45 42 38 37 37 37 38 37 36 34 34 34 35 34
5 8 11 12 14 15 15 15 15 14 14 15 16 19 22 22 22 23 24 25 26 26 26 26 27 27 28 29 31 32 33 34 34 34 34 35 35 35 34 34 34 34 34 34 35 36 37 38 39 40 41 41 40 37 35 34 35 36 38 38 39 40 41 42 43 44 45 46 46 46 46 45 43 40 38 37 37 37 37 36 35 35 35 35 35 35
5 7 9 12 14 16 17 17 17 16 16 15 15 17 21 22 21 22 24 25 25 26 27 27 27 27 28 28 29 30 32 33 33 34 34 35 36 37 37 37 37 37 37 37 37 38 38 39 40 41 41 40 38 36 35 36 37 38 39 40 40 41 41 42 43 43 44 44 43 42 41 41 39 38 36 35 34 35 36 35 35 35 35 35 36 36
5 6 8 11 14 16 18 19 18 17 17 18 17 17 20 22 22 21 22 23 23 25 26 27 28 28 29 29 29 30 30 31 32 33 34 34 35 36 36 37 37 37 37 37 37 37 37 38 39 39 39 38 37 37 38 38 39 40 40 40 41 41 41 41 41 40 39 39 39 38 37 37 36 35 34 33 33 34 35 34 34 34 34 34 35 35
Wind_Direction
225 222 221 220 219 220 221 221 220 221 222 221 222 223 224 227 228 227 231 230 225 227 229 228 230 231 233 232 226 224 225 227 228 228 229 231 232 235 236 236 234 234 236 235 232 230 227 223 219 218 219 218 220 222 224 227 231 235 238 240 242 244 246 248 250 253 256 258 259 259 258 258 257 255 251 252 254 257 258 259 260 261 259 258 259 259
224 221 219 217 217 218 218 218 217 219 221 220 221 222 222 225 227 226 229 231 226 226 228 227 228 229 230 232 228 224 224 225 227 228 229 231 233 235 234 232 230 230 231 231 230 226 223 219 214 213 215 215 218 221 223 227 232 236 239 241 243 244 246 248 251 255 258 259 258 258 257 256 255 254 251 251 253 256 257 259 261 262 260 261 262 261
223 220 216 214 216 215 215 215 214 217 218 218 219 221 222 224 226 226 227 229 226 224 227 226 227 227 227 230 227 224 223 223 225 227 227 229 231 231 230 228 228 229 230 230 227 221 217 212 207 208 212 213 216 219 222 227 234 239 241 244 245 246 247 250 253 257 258 255 252 253 253 250 249 250 249 248 250 253 255 257 261 262 261 261 259 255
223 217 213 213 214 214 213 212 212 215 217 217 218 219 221 223 224 225 225 226 225 222 223 224 225 226 225 227 225 222 222 222 223 224 223 224 226 225 224 224 226 228 230 228 222 215 210 204 202 205 210 211 214 218 222 229 237 240 242 245 246 248 251 252 251 254 256 253 250 248 247 245 245 247 246 245 246 250 254 257 260 263 262 261 256 251
220 213 213 214 213 212 212 211 210 212 215 215 216 217 220 221 223 224 223 223 223 220 220 222 222 223 223 224 223 220 219 219 220 221 221 222 222 222 221 222 224 226 228 225 216 211 205 199 199 204 208 210 213 217 222 231 238 240 242 245 248 251 250 248 245 246 248 249 249 247 244 243 242 243 245 245 246 251 256 260 262 263 262 258 251 246
215 210 213 212 211 211 210 210 209 209 213 213 213 214 216 219 220 221 221 220 220 219 220 221 221 221 222 223 222 220 219 218 218 219 220 221 222 222 223 223 224 225 227 222 214 211 205 198 199 204 208 211 213 215 222 232 237 238 242 246 247 247 245 242 242 243 245 248 250 250 246 243 242 243 245 246 247 251 257 261 262 262 262 256 247 241
210 209 211 209 209 210 208 209 207 207 210 211 212 212 214 217 216 217 219 218 219 219 220 220 219 220 222 221 220 220 219 218 218 219 219 220 221 223 224 224 225 226 225 219 216 214 207 200 201 205 209 211 215 217 223 233 236 235 239 244 241 238 238 237 239 243 247 250 251 251 249 246 245 247 249 250 250 253 255 258 259 259 261 260 252 249
207 207 209 206 208 208 206 207 206 205 208 210 211 211 213 216 214 214 215 214 216 217 217 218 217 219 221 221 220 219 218 217 217 218 218 220 221 222 223 223 224 225 220 216 217 215 207 202 203 207 210 213 219 225 229 236 240 236 237 241 239 235 237 238 242 247 249 250 251 252 250 247 247 249 253 254 255 257 258 258 258 258 261 262 258 257
204 205 207 204 205 205 204 205 205 205 206 208 211 210 211 214 212 211 211 209 209 212 215 215 214 216 220 221 219 218 218 217 216 216 217 218 220 221 221 222 223 220 216 215 216 211 204 203 206 209 211 215 223 231 235 237 241 244 244 244 242 240 242 242 243 246 247 250 252 253 251 248 250 254 257 257 256 259 261 260 259 260 261 259 257 259
202 203 206 203 202 202 203 203 203 203 204 207 210 209 209 210 208 207 206 204 206 211 213 213 213 216 219 221 219 217 217 216 215 215 216 217 218 219 220 221 220 217 215 215 213 208 204 204 208 210 212 219 226 232 239 239 241 248 252 249 243 242 243 244 247 249 249 250 251 253 254 254 258 261 261 258 256 257 260 260 260 262 260 255 256 260
199 200 203 201 200 200 202 203 202 199 201 207 209 207 206 206 204 203 201 199 206 212 213 212 214 215 218 221 221 218 218 215 214 214 215 216 217 217 218 217 216 215 214 214 212 209 207 206 209 210 213 222 230 236 242 243 244 250 254 249 241 241 244 248 253 254 252 252 255 256 256 261 265 265 262 261 259 256 256 256 255 257 256 254 258 261
196 198 201 199 198 199 200 202 201 197 199 205 206 205 204 201 199 199 198 199 206 211 211 211 214 215 217 221 221 219 218 216 214 214 215 216 217 216 215 214 212 211 213 213 212 209 208 209 210 211 217 226 233 238 240 242 244 247 250 248 244 246 250 250 252 252 251 254 257 256 256 263 266 266 267 267 262 256 252 248 246 248 252 254 258 257
192 196 198 196 196 198 199 201 199 195 198 202 201 202 201 197 194 195 198 202 207 210 208 211 214 215 216 219 220 218 215 215 213 213 214 215 216 215 213 211 208 209 212 213 212 210 209 211 211 213 220 227 232 236 238 241 243 245 246 247 246 249 249 247 248 249 249 253 255 256 257 261 263 266 269 268 261 252 247 245 243 244 248 251 253 250
190 193 196 194 196 197 198 200 197 194 197 197 197 200 199 196 194 196 200 203 206 208 207 210 214 215 215 217 221 218 212 211 211 211 213 214 215 214 211 208 207 208 211 212 211 211 210 212 213 216 222 228 231 234 238 241 244 247 248 247 247 249 249 249 250 251 251 253 255 259 262 262 264 268 268 266 260 245 241 246 244 240 242 246 247 241
186 190 193 193 195 196 197 198 196 194 196 195 196 199 198 198 198 198 200 202 204 207 208 209 212 214 214 217 221 217 209 209 209 208 210 211 212 211 207 204 206 208 211 211 210 211 212 213 215 219 224 230 234 235 238 242 245 248 248 247 247 250 254 255 256 256 255 254 256 260 265 266 266 265 261 263 260 244 241 246 240 237 240 240 235 229
184 187 192 191 193 195 195 196 193 192 194 193 194 196 193 193 197 197 198 200 202 207 209 209 211 213 213 216 218 212 207 207 206 205 207 209 209 207 205 203 205 208 209 210 210 211 213 215 217 221 227 232 234 236 238 241 244 246 247 247 249 252 255 256 258 259 257 256 258 261 265 266 263 261 260 262 256 246 244 240 234 235 237 229 223 221
184 186 189 189 191 193 194 194 191 189 192 192 193 193 188 188 194 196 198 200 202 207 209 208 211 212 212 215 214 207 204 205 204 204 206 207 207 205 203 203 205 208 208 209 211 211 213 216 217 223 229 232 235 236 238 240 243 245 246 247 250 252 255 257 259 259 257 257 261 262 263 264 262 259 259 256 246 242 240 234 231 232 228 223 224 227
182 187 189 187 190 191 190 193 192 186 187 193 195 190 185 188 193 193 197 201 202 206 209 208 211 214 215 216 213 205 203 205 204 205 206 205 205 204 203 205 207 208 208 209 212 212 213 216 218 223 229 233 235 237 238 241 242 245 247 249 249 249 252 257 259 260 259 259 261 261 260 259 260 258 251 240 231 231 231 227 226 228 229 232 235 233
177 188 190 187 189 190 188 190 190 184 183 191 195 191 187 191 193 192 196 201 202 205 208 208 210 213 216 217 213 205 204 206 204 205 206 204 204 204 204 206 208 210 211 211 213 213 214 218 222 227 231 234 237 238 239 241 243 246 248 250 252 252 253 256 257 258 261 262 261 258 254 253 255 251 237 226 222 221 224 224 229 237 241 239 234 232
179 188 189 186 186 188 190 190 188 186 185 186 188 191 193 194 192 193 197 201 202 205 208 208 209 212 215 217 213 206 205 207 205 205 206 204 204 205 205 208 210 212 213 213 214 213 214 219 227 232 234 235 237 238 238 239 242 246 250 251 254 255 253 253 253 255 260 262 259 253 245 242 242 235 226 229 235 239 239 239 242 243 238 233 231 233
181 188 186 183 183 186 192 191 186 186 189 187 186 189 192 193 192 194 199 201 201 205 210 210 209 211 215 216 213 206 204 206 206 206 206 205 204 205 206 208 211 213 214 214 213 212 215 221 228 234 234 234 237 237 236 239 242 247 251 252 254 254 252 251 252 254 258 259 254 248 241 236 233 231 234 240 248 250 246 242 239 234 231 233 234 235
178 184 183 181 182 186 190 190 186 184 187 189 189 188 188 191 193 195 199 200 200 203 209 212 211 213 216 216 214 208 204 205 206 205 205 205 205 206 206 206 208 211 212 213 212 212 216 222 226 231 232 233 237 237 236 239 242 247 251 252 253 253 251 250 249 251 254 252 246 245 242 236 234 236 240 244 248 246 239 234 231 230 232 234 236 238
175 176 181 183 182 183 186 185 185 184 186 190 189 187 188 191 193 196 199 200 201 202 205 208 210 213 217 218 216 210 205 205 205 203 203 204 205 205 205 205 206 209 210 210 210 212 217 221 223 228 231 235 239 240 239 239 242 246 250 250 250 250 249 248 246 246 247 244 239 239 240 237 236 239 241 243 245 242 236 233 231 233 235 236 239 243
173 170 178 183 183 183 184 182 182 184 188 189 187 185 189 192 194 197 199 201 204 204 205 208 208 209 214 217 216 212 206 203 204 204 203 204 205 205 204 204 206 208 209 208 208 212 217 221 224 227 232 237 241 242 242 240 240 246 249 248 248 248 246 243 240 240 242 242 239 237 238 239 240 242 244 245 246 243 240 237 234 235 237 240 243 247
171 167 170 177 181 185 184 180 182 185 186 187 186 187 189 190 192 195 198 201 204 204 207 209 209 211 213 213 212 209 204 200 201 204 205 204 205 205 204 204 206 208 208 206 208 214 220 225 229 231 235 240 243 244 243 241 240 245 248 246 246 244 242 240 238 237 240 242 241 237 237 239 240 243 245 245 245 245 243 239 236 238 241 244 248 251
166 164 167 175 183 187 183 180 182 184 183 185 188 191 191 191 192 194 196 199 199 202 205 201 197 209 215 213 210 207 201 196 198 202 204 203 203 204 204 205 207 207 207 206 209 216 222 228 233 236 240 243 244 243 243 240 240 244 246 244 243 241 240 240 239 238 240 242 240 237 237 238 240 242 243 244 245 245 243 240 240 242 245 249 253 256
163 161 165 174 181 183 183 183 184 185 185 186 188 191 193 193 194 196 198 199 197 200 204 199 189 196 207 208 207 203 197 196 197 199 202 203 203 204 205 205 205 205 204 205 210 217 222 228 235 240 243 244 243 242 241 239 240 242 243 242 240 238 239 240 240 240 241 242 240 239 238 238 240 242 243 245 247 248 248 247 247 249 252 255 258 261
163 162 165 170 173 178 184 186 187 187 188 187 187 189 191 193 196 198 198 200 200 199 200 201 199 194 192 196 199 196 194 196 198 199 200 200 202 204 204 203 201 198 199 204 211 217 224 231 236 238 239 238 237 237 236 236 238 240 240 239 237 236 238 241 241 241 242 243 244 243 241 240 241 242 245 247 250 252 253 253 254 256 258 261 263 265
163 165 165 166 170 179 185 186 186 187 189 189 190 190 191 192 195 197 197 199 201 197 187 186 192 192 189 189 189 189 190 194 197 197 196 196 198 200 199 196 194 193 197 204 212 219 226 230 229 228 227 227 227 228 229 232 235 237 239 238 235 235 238 241 242 242 243 244 246 247 246 244 243 244 246 249 252 254 256 259 261 263 264 266 268 269
160 165 165 163 168 177 182 184 186 189 190 191 192 193 194 194 194 196 197 199 200 196 188 179 179 186 190 187 183 184 187 190 193 193 193 194 194 193 190 188 190 193 199 206 214 221 222 220 218 219 219 219 220 222 225 229 232 233 234 234 234 234 237 240 241 241 241 242 245 247 247 247 246 246 246 248 251 255 258 261 263 265 267 268 269 271
156 163 166 164 168 176 181 183 186 189 191 192 193 195 197 197 197 197 198 199 198 196 194 189 183 181 183 183 181 182 185 188 188 189 190 191 189 186 185 186 191 197 203 211 215 216 213 213 216 218 218 219 220 222 225 228 229 230 231 233 234 235 237 239 240 241 241 242 244 246 248 250 250 251 251 251 253 255 257 260 263 265 267 269 271 273
154 160 163 164 168 176 180 181 184 188 191 194 196 197 197 197 198 199 199 199 197 193 194 194 187 178 177 179 179 180 182 184 184 186 188 188 185 183 184 190 196 202 208 213 211 208 208 211 213 212 212 215 218 220 223 226 227 229 231 234 235 236 238 240 241 242 243 244 246 248 250 252 254 255 256 257 258 259 261 263 265 268 270 272 274 276
155 158 159 160 166 173 177 180 183 187 191 195 196 197 198 198 198 200 201 201 197 192 191 188 177 172 174 176 177 179 180 181 183 185 186 184 183 183 187 194 200 205 208 206 201 201 204 205 205 205 208 210 213 217 221 225 228 230 232 236 238 240 242 243 245 246 247 248 249 251 252 254 255 256 258 260 262 264 267 269 271 273 275 276 277 279
153 158 159 160 162 166 171 177 183 189 193 194 195 197 200 200 200 200 201 200 197 192 189 180 169 169 174 174 176 179 178 179 182 183 182 182 182 185 191 196 200 204 202 197 195 197 199 201 205 208 212 216 220 223 227 232 237 238 239 242 245 247 248 248 249 250 251 251 252 253 254 255 257 259 261 264 266 268 270 272 274 276 277 278 279 280
151 158 160 159 160 163 170 178 184 189 193 195 197 200 201 200 200 201 202 202 197 190 185 178 171 171 173 174 178 180 179 180 181 182 183 183 185 189 193 196 200 202 199 195 197 201 203 207 214 219 223 227 231 233 236 241 244 245 245 246 247 249 249 249 249 249 250 251 252 253 255 257 259 261 263 266 267 270 271 273 275 277 278 279 280 281
151 157 157 157 161 165 171 179 184 188 191 193 197 200 201 199 199 200 200 200 195 187 181 178 174 171 172 175 178 180 181 181 181 182 185 187 189 192 194 196 202 204 201 201 205 211 216 219 225 230 235 238 241 243 246 247 247 247 247 246 247 249 250 249 248 248 249 250 251 253 255 257 259 261 262 265 266 269 271 272 274 275 277 280 282 284
151 157 158 158 164 169 172 178 183 185 188 193 197 199 199 199 200 200 199 199 193 184 179 178 175 171 172 174 177 180 182 183 182 183 186 188 191 192 194 199 204 204 205 207 212 220 226 229 233 239 244 246 248 248 249 248 247 247 247 247 248 249 249 248 246 246 247 250 252 254 255 257 259 261 263 265 266 268 270 272 274 276 278 282 285 287
154 159 162 162 167 172 173 176 180 182 187 193 196 198 197 198 201 202 202 202 194 182 176 176 174 173 173 174 177 180 183 184 185 186 186 187 189 192 197 204 207 208 210 213 218 226 231 235 240 244 247 248 248 246 246 246 247 247 247 248 247 246 245 243 243 244 247 250 253 256 258 260 262 263 265 266 268 270 272 273 276 278 281 283 285 287
157 162 166 166 168 172 174 177 182 184 186 188 192 195 195 195 198 199 200 202 195 181 176 175 173 173 175 178 179 181 184 187 188 189 189 188 189 194 200 206 210 212 215 218 223 228 231 237 243 245 246 246 246 246 246 246 246 247 247 247 246 245 243 241 241 244 247 251 255 257 260 262 264 265 266 268 270 272 274 276 277 280 281 281 283 284
161 165 169 169 169 170 172 178 184 187 187 187 189 190 189 190 193 195 196 199 197 185 177 175 175 176 179 182 182 182 186 190 190 191 192 192 192 196 203 209 213 216 220 224 228 231 235 241 242 241 241 243 245 246 245 245 245 245 244 244 245 245 243 242 243 246 250 253 256 257 259 262 264 266 268 270 272 274 276 278 278 279 279 280 282 283
166 166 171 174 171 170 171 176 184 186 186 188 186 185 186 187 190 194 193 193 197 193 184 178 178 178 179 182 184 185 190 193 192 191 192 193 195 201 208 213 218 222 226 231 235 239 242 241 235 230 232 237 241 241 240 240 240 239 240 241 242 243 243 243 245 247 250 252 254 256 258 261 264 268 270 271 274 276 278 279 279 279 279 279 281 283
168 168 174 178 176 174 174 175 182 184 183 184 183 182 184 186 188 192 192 187 189 194 191 186 183 180 178 179 182 185 190 192 192 192 193 194 199 207 213 217 220 224 229 235 241 243 241 235 228 226 230 237 241 242 241 240 240 239 240 242 242 244 245 246 247 248 249 251 252 254 257 260 264 269 273 274 275 277 278 279 280 280 279 279 279 281
170 173 179 182 179 179 179 179 181 183 182 182 181 182 186 189 191 193 192 189 186 186 189 191 190 188 188 191 194 197 199 198 196 194 195 198 203 208 213 216 220 224 229 235 238 237 234 230 227 228 235 243 248 250 250 249 248 248 248 249 249 249 250 250 250 250 250 251 252 254 256 259 264 271 276 277 278 278 278 279 279 279 279 279 279 280
174 178 184 185 182 181 184 185 182 180 183 184 182 184 188 193 197 198 196 194 193 189 187 189 191 193 195 199 202 204 205 206 205 199 198 201 205 208 213 218 221 225 229 233 233 231 231 231 230 232 240 250 254 257 257 255 253 253 253 254 254 253 252 251 251 251 252 253 254 256 258 260 266 273 278 280 279 278 277 277 277 278 278 278 278 280
181 183 186 184 181 182 187 189 185 184 187 188 186 189 192 192 195 199 199 199 199 195 191 188 189 192 194 196 199 201 203 208 211 207 204 206 207 210 216 222 225 227 232 235 235 231 232 233 233 236 245 253 257 261 264 261 258 256 256 256 256 256 255 254 253 253 253 254 255 257 260 264 268 274 278 280 279 276 275 274 275 275 275 275 277 278
195 191 188 183 182 183 184 185 185 187 190 189 189 194 197 195 196 200 202 202 203 201 198 193 191 193 195 198 201 204 205 208 210 211 212 214 214 216 220 224 228 232 238 243 242 237 235 235 236 241 249 256 261 265 268 265 260 258 257 257 257 258 257 257 256 255 254 255 256 258 262 265 269 274 277 277 275 274 273 274 274 273 274 274 275 277
202 204 204 195 190 190 190 188 186 187 189 191 192 196 199 200 200 203 205 206 206 206 205 202 198 196 197 199 203 208 211 212 212 213 215 217 217 218 220 224 230 236 242 246 247 246 244 243 244 249 254 258 263 267 267 263 258 257 257 257 258 258 258 258 258 257 257 258 259 262 265 269 273 276 275 273 271 271 271 273 273 272 273 273 275 276
189 200 207 207 200 197 199 199 195 192 193 194 196 200 204 205 205 206 207 208 209 209 210 209 207 204 203 203 205 209 213 216 218 218 218 218 217 218 222 227 233 238 242 246 248 250 251 252 253 255 256 259 263 266 265 261 258 257 257 257 257 259 259 260 260 260 261 263 265 268 271 273 276 276 271 268 268 269 269 271 272 272 272 273 275 277
171 183 192 203 206 205 206 206 202 198 198 198 198 203 206 206 207 209 209 208 210 211 212 213 214 212 211 210 210 211 213 217 220 223 223 223 222 224 227 232 236 239 242 244 246 248 251 254 255 256 258 260 263 264 263 262 261 261 261 261 261 261 262 263 263 265 266 269 271 272 274 275 275 272 267 266 266 267 267 269 270 271 272 273 275 277
178 175 181 192 202 208 211 210 207 205 204 204 206 208 206 204 205 207 206 204 206 209 211 214 217 218 218 219 218 217 218 220 222 225 227 228 229 230 232 235 238 241 243 245 248 250 252 254 256 257 259 261 262 263 264 264 265 266 267 268 267 266 266 267 268 269 270 271 272 273 273 272 270 268 266 265 264 265 267 269 270 272 273 275 275 276
213 198 189 191 196 202 204 203 203 206 206 205 205 202 198 197 200 203 203 204 206 209 211 213 216 219 221 222 223 224 224 224 225 227 229 231 233 235 237 239 241 243 245 247 249 251 253 255 256 257 258 260 261 264 266 268 270 271 272 272 271 269 269 269 269 269 268 269 269 269 268 267 266 265 264 264 264 265 267 269 271 273 274 274 274 273
Height
5635 5638 5640 5648 5659 5668 5674 5680 5687 5689 5692 5699 5704 5709 5715 5719 5723 5729 5731 5735 5745 5748 5752 5758 5760 5763 5765 5769 5775 5779 5782 5785 5788 5791 5793 5795 5797 5799 5803 5807 5810 5810 5811 5814 5816 5819 5820 5822 5824 5825 5826 5828 5828 5829 5830 5830 5831 5832 5832 5833 5833 5833 5832 5832 5831 5831 5832 5833 5833 5834 5834 5833 5832 5832 5832 5832 5833 5833 5833 5833 5833 5833 5833 5833 5833 5833
5624 5627 5636 5650 5658 5662 5666 5671 5678 5681 5687 5695 5699 5703 5710 5713 5718 5725 5727 5731 5742 5746 5748 5753 5755 5758 5763 5765 5770 5775 5778 5781 5784 5787 5790 5793 5795 5798 5801 5804 5805 5806 5807 5810 5813 5815 5817 5819 5821 5823 5824 5825 5826 5827 5827 5828 5829 5829 5830 5830 5831 5830 5829 5829 5829 5830 5831 5831 5832 5832 5831 5831 5830 5830 5830 5831 5832 5831 5831 5831 5831 5832 5832 5831 5832 5831
5614 5622 5638 5649 5650 5652 5657 5664 5671 5676 5682 5688 5693 5699 5704 5709 5715 5721 5724 5729 5737 5741 5744 5748 5750 5755 5760 5762 5765 5770 5774 5778 5781 5784 5788 5790 5792 5795 5798 5800 5801 5802 5804 5807 5810 5812 5814 5816 5818 5820 5821 5822 5823 5825 5825 5826 5827 5827 5828 5829 5828 5828 5828 5828 5829 5829 5829 5829 5829 5829 5828 5828 5827 5827 5828 5829 5829 5828 5829 5829 5829 5830 5830 5829 5830 5829
5609 5625 5639 5640 5640 5646 5652 5657 5664 5669 5675 5682 5689 5695 5700 5706 5711 5715 5721 5726 5731 5737 5739 5742 5746 5751 5755 5757 5760 5766 5770 5774 5777 5780 5783 5785 5788 5791 5793 5795 5796 5798 5801 5804 5806 5808 5811 5813 5816 5817 5819 5821 5822 5823 5824 5825 5825 5826 5827 5827 5826 5826 5827 5827 5827 5827 5827 5827 5826 5825 5826 5826 5825 5825 5825 5826 5825 5825 5826 5826 5827 5828 5827 5827 5827 5827
5608 5626 5631 5629 5635 5641 5645 5651 5658 5664 5670 5678 5685 5691 5696 5702 5706 5712 5718 5722 5727 5732 5734 5736 5741 5746 5750 5753 5756 5761 5764 5768 5772 5775 5778 5780 5783 5786 5789 5791 5792 5795 5798 5801 5803 5805 5808 5811 5813 5815 5817 5819 5819 5820 5822 5823 5823 5823 5824 5824 5824 5825 5825 5825 5824 5824 5824 5823 5822 5823 5823 5823 5823 5822 5822 5823 5823 5823 5824 5824 5824 5825 5825 5826 5825 5825
5605 5616 5616 5621 5629 5633 5639 5646 5653 5660 5666 5673 5678 5685 5691 5695 5702 5708 5713 5717 5722 5726 5729 5733 5738 5742 5746 5749 5752 5756 5759 5763 5767 5770 5774 5777 5780 5783 5785 5788 5790 5793 5795 5798 5801 5803 5806 5809 5811 5813 5815 5816 5817 5818 5820 5820 5819 5821 5821 5821 5822 5822 5821 5821 5821 5821 5820 5820 5820 5821 5821 5820 5820 5820 5820 5820 5821 5821 5822 5821 5822 5822 5823 5824 5824 5824
5597 5603 5607 5616 5622 5627 5636 5641 5648 5656 5661 5667 5673 5680 5685 5689 5698 5704 5708 5714 5718 5722 5727 5730 5735 5739 5741 5745 5748 5751 5755 5760 5764 5767 5771 5774 5777 5779 5782 5785 5788 5791 5794 5796 5799 5801 5804 5807 5809 5811 5813 5813 5813 5814 5817 5816 5815 5816 5817 5817 5817 5817 5817 5818 5818 5818 5817 5817 5818 5818 5818 5818 5817 5818 5818 5818 5818 5819 5819 5819 5819 5819 5820 5820 5821 5821
5588 5594 5600 5609 5615 5623 5631 5636 5645 5652 5656 5664 5670 5676 5681 5687 5695 5701 5705 5711 5716 5720 5723 5726 5731 5735 5737 5741 5744 5747 5751 5756 5759 5763 5767 5770 5773 5776 5779 5783 5787 5790 5792 5794 5797 5800 5803 5805 5807 5809 5809 5810 5810 5812 5815 5815 5814 5814 5813 5811 5812 5814 5815 5815 5816 5815 5815 5815 5815 5816 5816 5815 5815 5815 5816 5816 5816 5816 5817 5817 5817 5817 5817 5817 5818 5817
5584 5588 5594 5604 5611 5619 5627 5634 5643 5648 5654 5661 5665 5672 5678 5685 5693 5698 5703 5708 5712 5715 5717 5721 5727 5730 5733 5736 5740 5744 5748 5751 5755 5760 5763 5766 5769 5773 5778 5782 5785 5788 5790 5792 5795 5798 5800 5803 5804 5805 5807 5808 5809 5812 5813 5814 5814 5813 5810 5809 5811 5813 5814 5813 5813 5812 5812 5812 5813 5814 5814 5813 5813 5813 5813 5814 5814 5814 5814 5814 5814 5814 5814 5814 5814 5815
5578 5583 5592 5601 5609 5616 5624 5631 5637 5643 5651 5656 5659 5667 5675 5682 5689 5694 5699 5705 5707 5708 5711 5718 5722 5725 5729 5732 5735 5739 5742 5746 5751 5755 5759 5763 5767 5772 5777 5780 5783 5785 5787 5790 5793 5795 5798 5800 5801 5803 5805 5806 5807 5809 5811 5811 5810 5809 5810 5811 5811 5811 5810 5811 5811 5810 5810 5811 5812 5812 5812 5812 5811 5811 5811 5811 5811 5811 5812 5812 5811 5811 5811 5812 5812 5813
5572 5580 5587 5596 5605 5613 5619 5625 5630 5639 5647 5650 5655 5664 5672 5679 5685 5690 5696 5701 5702 5703 5709 5715 5719 5722 5726 5728 5732 5736 5738 5743 5748 5752 5757 5762 5766 5771 5774 5778 5781 5783 5786 5788 5790 5793 5795 5797 5799 5801 5803 5804 5805 5807 5809 5808 5807 5807 5807 5808 5808 5808 5807 5809 5809 5808 5808 5809 5809 5810 5810 5810 5809 5809 5809 5809 5808 5808 5809 5809 5809 5809 5809 5810 5810 5811
5569 5575 5581 5590 5600 5607 5614 5619 5626 5635 5641 5645 5653 5662 5669 5676 5682 5688 5692 5695 5696 5700 5708 5712 5715 5719 5722 5725 5729 5733 5736 5742 5747 5752 5757 5760 5764 5768 5772 5776 5778 5781 5783 5785 5788 5790 5793 5795 5797 5799 5800 5801 5803 5805 5806 5805 5805 5805 5803 5804 5806 5807 5806 5808 5807 5805 5805 5806 5807 5807 5807 5807 5807 5807 5807 5806 5806 5806 5806 5807 5807 5807 5808 5809 5809 5809
5565 5570 5578 5588 5596 5602 5608 5614 5620 5629 5634 5640 5650 5658 5665 5672 5678 5683 5687 5691 5695 5699 5705 5709 5711 5714 5718 5723 5725 5728 5734 5740 5746 5751 5755 5758 5762 5766 5770 5774 5776 5778 5780 5782 5785 5787 5790 5792 5794 5796 5798 5799 5800 5802 5803 5802 5802 5801 5801 5802 5806 5805 5805 5805 5805 5804 5803 5804 5804 5804 5805 5805 5805 5805 5805 5804 5803 5803 5804 5804 5805 5806 5806 5807 5808 5808
5564 5569 5576 5584 5591 5597 5604 5609 5616 5624 5630 5638 5647 5654 5661 5667 5672 5678 5684 5689 5693 5697 5701 5705 5707 5710 5716 5720 5721 5725 5733 5738 5743 5748 5752 5756 5760 5764 5768 5771 5773 5775 5776 5779 5782 5785 5787 5790 5791 5793 5795 5796 5797 5798 5799 5799 5799 5798 5799 5801 5803 5803 5802 5802 5802 5801 5801 5801 5801 5802 5803 5803 5803 5803 5803 5802 5801 5801 5802 5802 5803 5804 5805 5805 5806 5807
5562 5567 5572 5579 5587 5594 5602 5610 5618 5627 5633 5640 5647 5654 5661 5666 5671 5677 5682 5686 5690 5694 5697 5700 5703 5707 5713 5716 5718 5724 5731 5735 5740 5745 5749 5753 5756 5760 5763 5765 5768 5771 5774 5777 5780 5782 5785 5787 5788 5790 5792 5793 5794 5796 5796 5796 5796 5796 5797 5798 5799 5799 5799 5798 5798 5798 5798 5799 5799 5800 5801 5801 5800 5801 5800 5800 5799 5800 5800 5801 5801 5802 5803 5804 5804 5805
5562 5567 5572 5579 5587 5595 5604 5611 5618 5626 5633 5639 5644 5650 5658 5666 5671 5676 5678 5683 5688 5689 5692 5696 5701 5705 5709 5711 5715 5722 5728 5732 5736 5741 5745 5748 5751 5754 5758 5762 5765 5768 5771 5774 5777 5780 5782 5784 5786 5787 5789 5790 5791 5793 5793 5793 5794 5794 5794 5795 5796 5796 5795 5795 5795 5796 5797 5797 5797 5798 5799 5798 5798 5798 5798 5798 5797 5798 5799 5799 5799 5800 5801 5802 5802 5803
5564 5569 5574 5581 5589 5596 5604 5610 5616 5622 5630 5636 5640 5647 5657 5664 5668 5672 5676 5680 5683 5685 5689 5695 5698 5701 5704 5707 5712 5719 5725 5729 5733 5736 5740 5743 5747 5751 5755 5759 5762 5765 5768 5771 5774 5778 5780 5781 5783 5784 5786 5787 5788 5789 5790 5790 5791 5791 5792 5793 5794 5793 5793 5793 5793 5794 5795 5794 5795 5796 5797 5796 5796 5796 5796 5795 5795 5796 5797 5797 5798 5799 5799 5800 5801 5802
5567 5572 5576 5581 5588 5594 5602 5609 5615 5622 5630 5635 5639 5647 5655 5659 5661 5668 5674 5676 5679 5683 5688 5693 5696 5699 5702 5706 5711 5717 5722 5725 5730 5734 5737 5741 5745 5749 5753 5756 5759 5763 5766 5769 5772 5775 5777 5779 5780 5782 5783 5784 5785 5786 5786 5787 5787 5788 5789 5791 5791 5791 5790 5790 5791 5792 5792 5792 5793 5794 5794 5794 5793 5794 5794 5794 5794 5795 5795 5796 5797 5798 5799 5800 5801 5802
5569 5574 5578 5583 5589 5596 5603 5609 5613 5619 5624 5631 5640 5647 5650 5652 5658 5664 5668 5671 5676 5682 5686 5690 5694 5697 5701 5705 5710 5716 5720 5723 5727 5731 5735 5739 5743 5747 5751 5754 5757 5760 5763 5766 5770 5772 5775 5777 5778 5779 5780 5781 5782 5783 5784 5785 5785 5786 5787 5787 5787 5787 5787 5788 5790 5790 5790 5791 5792 5792 5792 5792 5792 5792 5793 5793 5793 5794 5795 5796 5797 5798 5798 5799 5800 5801
5569 5573 5578 5584 5592 5599 5604 5607 5611 5615 5619 5625 5635 5643 5648 5653 5659 5663 5667 5671 5677 5681 5684 5688 5692 5695 5699 5703 5707 5713 5718 5721 5725 5729 5733 5738 5742 5746 5749 5752 5755 5758 5761 5765 5768 5770 5772 5774 5775 5776 5778 5779 5780 5781 5782 5783 5783 5784 5785 5784 5784 5785 5786 5787 5788 5788 5788 5789 5790 5790 5790 5789 5790 5791 5792 5792 5793 5793 5794 5795 5796 5797 5797 5798 5799 5800
5570 5574 5579 5585 5592 5598 5601 5605 5610 5615 5621 5625 5631 5637 5645 5652 5657 5662 5667 5672 5676 5681 5684 5686 5690 5693 5697 5700 5704 5710 5715 5719 5723 5728 5732 5737 5741 5744 5747 5750 5753 5756 5760 5763 5765 5767 5769 5771 5772 5774 5775 5777 5777 5779 5780 5781 5782 5783 5783 5782 5782 5784 5785 5786 5786 5787 5787 5787 5787 5787 5787 5788 5789 5790 5791 5791 5792 5792 5793 5794 5795 5796 5796 5797 5798 5799
5571 5576 5582 5586 5591 5596 5601 5607 5612 5616 5622 5628 5632 5638 5645 5651 5657 5661 5664 5669 5674 5679 5682 5685 5689 5693 5696 5699 5703 5709 5714 5717 5722 5727 5731 5735 5739 5741 5744 5747 5750 5754 5757 5760 5762 5764 5766 5768 5770 5771 5773 5774 5775 5777 5778 5779 5780 5781 5781 5781 5781 5782 5783 5784 5785 5785 5786 5785 5785 5785 5786 5786 5787 5788 5789 5790 5790 5791 5792 5793 5794 5795 5795 5796 5797 5798
5573 5578 5583 5588 5593 5597 5602 5607 5613 5617 5621 5626 5632 5640 5646 5650 5655 5659 5663 5667 5672 5675 5678 5683 5688 5692 5694 5697 5702 5708 5713 5716 5720 5725 5729 5732 5735 5737 5741 5744 5747 5750 5754 5756 5759 5761 5763 5765 5767 5769 5770 5772 5773 5775 5776 5777 5778 5779 5779 5779 5780 5780 5781 5782 5783 5784 5784 5784 5784 5784 5785 5785 5786 5787 5787 5788 5789 5790 5791 5792 5792 5793 5794 5795 5795 5796
5575 5579 5584 5590 5596 5600 5603 5606 5611 5615 5619 5624 5632 5638 5643 5648 5653 5658 5663 5667 5670 5674 5678 5682 5686 5690 5693 5696 5701 5705 5710 5715 5718 5722 5725 5728 5730 5734 5737 5741 5744 5747 5750 5754 5756 5758 5760 5762 5764 5767 5768 5769 5771 5772 5773 5774 5776 5777 5777 5777 5777 5778 5779 5781 5782 5782 5783 5783 5783 5784 5784 5784 5785 5785 5786 5786 5787 5788 5789 5790 5791 5791 5792 5793 5794 5794
5577 5580 5584 5589 5593 5595 5598 5602 5605 5610 5617 5625 5631 5635 5638 5644 5649 5655 5660 5663 5667 5673 5677 5681 5686 5689 5691 5694 5698 5702 5708 5712 5715 5719 5722 5725 5728 5732 5735 5739 5742 5745 5748 5751 5754 5756 5758 5760 5762 5764 5765 5766 5768 5769 5771 5772 5773 5774 5775 5775 5775 5776 5777 5778 5780 5781 5781 5782 5782 5782 5782 5782 5783 5783 5784 5785 5786 5786 5787 5788 5789 5790 5791 5791 5792 5792
5578 5581 5585 5589 5592 5595 5599 5603 5608 5613 5618 5624 5630 5634 5638 5643 5647 5651 5655 5659 5665 5669 5674 5680 5686 5688 5690 5694 5697 5701 5705 5709 5712 5715 5718 5722 5725 5729 5732 5736 5739 5742 5746 5749 5751 5753 5756 5758 5759 5761 5762 5764 5765 5766 5768 5769 5770 5772 5773 5773 5773 5774 5775 5776 5777 5778 5779 5780 5780 5780 5780 5781 5782 5782 5783 5783 5784 5785 5786 5787 5788 5788 5789 5790 5790 5790
5580 5584 5587 5592 5596 5601 5606 5610 5613 5615 5617 5621 5626 5633 5639 5644 5647 5650 5654 5658 5664 5668 5673 5679 5684 5686 5689 5693 5696 5699 5703 5706 5709 5712 5715 5719 5723 5726 5730 5733 5736 5740 5743 5746 5749 5751 5753 5755 5756 5758 5759 5760 5762 5763 5765 5766 5768 5769 5770 5770 5771 5772 5773 5774 5775 5776 5777 5777 5778 5778 5779 5780 5780 5781 5781 5782 5782 5783 5784 5785 5786 5786 5787 5787 5788 5788
5583 5586 5589 5593 5597 5602 5605 5608 5610 5614 5618 5622 5627 5631 5637 5642 5646 5650 5655 5660 5664 5668 5673 5679 5682 5685 5689 5692 5695 5698 5701 5704 5707 5710 5713 5717 5721 5724 5728 5731 5734 5737 5741 5744 5746 5748 5750 5752 5754 5755 5756 5757 5759 5760 5762 5764 5765 5767 5768 5768 5769 5770 5771 5772 5773 5774 5775 5775 5776 5777 5777 5778 5778 5779 5779 5780 5781 5781 5782 5783 5784 5784 5785 5785 5785 5785
5585 5588 5591 5594 5598 5602 5605 5609 5613 5618 5622 5626 5629 5632 5636 5640 5644 5649 5654 5659 5662 5667 5673 5678 5681 5685 5687 5690 5693 5696 5700 5703 5705 5708 5712 5715 5718 5721 5725 5729 5733 5736 5739 5741 5744 5746 5748 5750 5751 5752 5753 5755 5756 5758 5760 5761 5763 5764 5765 5766 5767 5768 5769 5770 5771 5772 5773 5773 5774 5775 5775 5776 5776 5777 5777 5778 5779 5779 5780 5781 5781 5782 5782 5783 5783 5783
5588 5591 5594 5597 5600 5604 5607 5611 5615 5618 5622 5626 5631 5634 5638 5641 5644 5649 5653 5657 5660 5666 5671 5675 5679 5683 5687 5689 5692 5695 5698 5700 5703 5707 5710 5712 5716 5720 5724 5728 5732 5735 5737 5739 5742 5744 5746 5747 5748 5749 5751 5753 5755 5756 5758 5759 5760 5762 5763 5764 5765 5766 5767 5768 5769 5769 5770 5771 5772 5773 5773 5774 5774 5775 5775 5776 5776 5777 5778 5778 5779 5779 5780 5780 5780 5780
5590 5593 5596 5599 5603 5606 5609 5612 5615 5618 5622 5627 5630 5633 5637 5641 5644 5648 5651 5655 5660 5666 5671 5674 5678 5682 5686 5689 5691 5694 5696 5699 5702 5705 5708 5711 5715 5719 5723 5727 5730 5733 5735 5737 5739 5742 5743 5745 5746 5748 5750 5751 5753 5754 5755 5756 5758 5759 5760 5761 5763 5764 5765 5766 5767 5767 5768 5769 5770 5770 5771 5772 5772 5773 5773 5774 5774 5775 5775 5776 5776 5777 5777 5777 5777 5777
5591 5594 5598 5601 5604 5607 5610 5613 5616 5620 5624 5627 5630 5633 5636 5640 5644 5648 5652 5655 5660 5666 5670 5674 5678 5682 5685 5687 5690 5692 5694 5697 5701 5704 5707 5711 5715 5719 5723 5726 5728 5731 5733 5735 5738 5740 5741 5743 5745 5747 5748 5749 5751 5752 5753 5754 5756 5757 5758 5759 5760 5762 5763 5764 5765 5765 5766 5767 5768 5768 5769 5769 5770 5770 5771 5771 5772 5772 5773 5773 5774 5774 5774 5774 5774 5773
5593 5596 5599 5602 5605 5608 5611 5614 5617 5621 5624 5627 5630 5634 5638 5641 5644 5648 5651 5655 5660 5665 5669 5673 5678 5681 5683 5686 5689 5691 5693 5696 5699 5703 5706 5710 5714 5718 5721 5724 5726 5729 5731 5733 5736 5737 5739 5741 5743 5744 5746 5747 5748 5750 5751 5752 5753 5755 5756 5757 5758 5760 5761 5762 5762 5763 5764 5765 5765 5766 5766 5767 5767 5768 5768 5769 5769 5770 5770 5770 5771 5771 5771 5771 5770 5770
5595 5597 5600 5603 5606 5609 5612 5616 5619 5622 5624 5628 5631 5635 5638 5641 5645 5648 5651 5656 5661 5665 5669 5673 5677 5680 5682 5685 5688 5690 5693 5695 5699 5702 5706 5709 5712 5716 5718 5721 5724 5726 5728 5730 5733 5735 5737 5739 5740 5742 5743 5745 5746 5748 5749 5750 5751 5752 5754 5755 5756 5757 5758 5759 5760 5760 5761 5762 5763 5763 5764 5764 5765 5765 5766 5766 5766 5767 5767 5767 5767 5768 5767 5767 5767 5766
5596 5599 5601 5604 5607 5610 5614 5617 5619 5622 5625 5629 5632 5634 5637 5642 5646 5649 5652 5656 5660 5665 5669 5673 5676 5679 5681 5684 5687 5689 5692 5695 5698 5702 5705 5708 5711 5714 5717 5720 5722 5724 5726 5729 5731 5732 5734 5737 5738 5740 5741 5743 5744 5745 5746 5747 5748 5749 5751 5752 5754 5755 5755 5756 5757 5758 5759 5759 5760 5760 5761 5761 5762 5762 5763 5763 5763 5763 5764 5764 5764 5764 5764 5763 5763 5763
5597 5600 5603 5606 5609 5611 5614 5617 5620 5623 5626 5629 5632 5634 5638 5641 5645 5648 5651 5655 5659 5664 5668 5671 5674 5678 5680 5683 5686 5689 5692 5694 5697 5701 5704 5708 5710 5713 5716 5718 5719 5722 5724 5727 5729 5730 5732 5734 5736 5737 5739 5741 5742 5743 5744 5745 5746 5746 5748 5749 5750 5751 5752 5753 5754 5755 5756 5756 5757 5757 5758 5758 5759 5759 5760 5760 5760 5760 5761 5760 5761 5761 5761 5760 5759 5759
5599 5602 5604 5607 5610 5612 5615 5618 5621 5624 5627 5629 5632 5634 5638 5641 5644 5647 5650 5653 5658 5663 5666 5669 5672 5676 5679 5682 5685 5688 5691 5694 5697 5700 5703 5706 5709 5711 5713 5715 5716 5719 5722 5724 5726 5728 5730 5732 5734 5735 5737 5737 5738 5739 5740 5741 5742 5743 5744 5746 5747 5748 5749 5750 5751 5752 5752 5753 5753 5754 5755 5755 5755 5756 5756 5757 5757 5757 5757 5757 5757 5757 5757 5756 5756 5755
5601 5603 5605 5608 5611 5614 5616 5620 5622 5625 5627 5629 5632 5635 5638 5642 5645 5648 5651 5654 5658 5662 5665 5668 5671 5675 5678 5681 5684 5687 5690 5693 5696 5698 5701 5704 5707 5710 5711 5713 5715 5717 5720 5723 5725 5727 5728 5730 5732 5732 5733 5733 5734 5735 5736 5738 5739 5740 5741 5742 5744 5745 5746 5747 5748 5748 5749 5749 5750 5751 5752 5752 5752 5753 5753 5753 5754 5754 5754 5754 5754 5753 5753 5753 5752 5752
5602 5604 5607 5609 5612 5615 5618 5621 5623 5625 5627 5629 5632 5635 5639 5642 5645 5648 5651 5654 5657 5662 5665 5668 5671 5674 5677 5680 5683 5686 5689 5692 5694 5696 5699 5702 5705 5708 5710 5711 5714 5716 5719 5721 5723 5725 5727 5728 5729 5729 5729 5730 5731 5732 5733 5735 5736 5737 5738 5739 5740 5742 5743 5744 5744 5745 5745 5746 5747 5748 5748 5749 5749 5749 5750 5750 5750 5750 5750 5750 5750 5750 5750 5749 5749 5749
5604 5606 5608 5610 5613 5616 5619 5621 5623 5625 5627 5629 5632 5635 5639 5642 5644 5647 5650 5653 5657 5661 5665 5668 5671 5673 5676 5679 5682 5685 5687 5689 5692 5695 5698 5700 5703 5706 5708 5710 5712 5715 5717 5719 5720 5722 5724 5725 5726 5726 5726 5727 5728 5730 5731 5732 5733 5734 5735 5736 5738 5739 5740 5740 5741 5742 5742 5743 5744 5745 5745 5745 5746 5746 5746 5747 5747 5747 5747 5747 5747 5747 5746 5746 5745 5745
5605 5607 5609 5612 5614 5616 5619 5622 5623 5625 5627 5630 5632 5635 5638 5641 5644 5646 5649 5653 5656 5660 5664 5667 5670 5672 5675 5678 5680 5683 5685 5687 5690 5694 5696 5699 5702 5703 5705 5707 5710 5712 5714 5716 5717 5719 5721 5722 5722 5723 5724 5725 5726 5727 5728 5729 5730 5731 5732 5734 5735 5736 5736 5737 5738 5739 5740 5740 5741 5741 5742 5742 5742 5742 5743 5743 5743 5743 5743 5743 5743 5743 5742 5742 5741 5741
5606 5608 5610 5613 5615 5617 5619 5621 5623 5625 5628 5630 5633 5635 5638 5641 5644 5646 5649 5653 5655 5658 5662 5666 5669 5672 5674 5677 5679 5681 5684 5686 5690 5693 5695 5698 5700 5701 5702 5705 5708 5710 5712 5713 5715 5716 5717 5718 5719 5721 5723 5724 5724 5725 5726 5726 5728 5729 5730 5731 5732 5733 5734 5734 5735 5736 5737 5737 5738 5738 5739 5739 5739 5739 5739 5739 5739 5739 5739 5739 5739 5739 5738 5738 5738 5737
5607 5609 5611 5613 5615 5617 5619 5621 5623 5625 5627 5630 5632 5635 5637 5640 5642 5645 5649 5652 5655 5657 5661 5664 5668 5671 5673 5676 5678 5681 5683 5686 5689 5691 5693 5696 5697 5699 5701 5703 5706 5708 5709 5710 5711 5712 5714 5715 5717 5718 5720 5721 5721 5722 5723 5724 5725 5726 5727 5727 5728 5729 5730 5731 5732 5733 5733 5734 5734 5734 5735 5735 5736 5736 5735 5735 5735 5735 5735 5735 5735 5734 5734 5734 5733 5733
5608 5609 5611 5613 5615 5617 5619 5620 5622 5624 5627 5629 5632 5634 5636 5639 5642 5645 5648 5651 5654 5657 5660 5663 5666 5669 5672 5674 5677 5679 5682 5685 5687 5689 5691 5693 5695 5697 5700 5702 5704 5705 5705 5706 5708 5709 5711 5712 5714 5715 5717 5718 5719 5720 5720 5721 5722 5723 5723 5724 5725 5726 5726 5727 5728 5728 5729 5729 5730 5730 5731 5731 5732 5732 5732 5731 5731 5731 5731 5731 5731 5730 5730 5730 5729 5729
5608 5609 5611 5613 5615 5617 5618 5620 5622 5624 5626 5628 5631 5634 5636 5638 5641 5644 5647 5650 5653 5656 5659 5662 5664 5667 5670 5672 5675 5677 5680 5682 5685 5687 5689 5691 5693 5695 5697 5699 5701 5701 5701 5703 5705 5707 5708 5710 5711 5712 5713 5714 5715 5716 5717 5718 5719 5719 5720 5721 5721 5722 5722 5723 5724 5724 5724 5725 5726 5726 5727 5727 5728 5728 5727 5727 5727 5726 5726 5726 5726 5726 5726 5726 5725 5725
5608 5610 5612 5614 5615 5617 5619 5621 5622 5624 5626 5628 5630 5632 5635 5637 5640 5642 5645 5648 5651 5654 5657 5660 5663 5665 5668 5671 5673 5675 5677 5679 5682 5684 5687 5689 5691 5693 5695 5696 5697 5698 5699 5701 5703 5704 5705 5707 5708 5709 5710 5711 5712 5713 5714 5715 5715 5716 5716 5717 5717 5717 5718 5718 5719 5719 5720 5721 5721 5722 5722 5722 5723 5723 5723 5722 5722 5722 5722 5722 5722 5722 5722 5721 5721 5721
5608 5610 5612 5614 5615 5617 5619 5620 5622 5624 5626 5627 5629 5631 5634 5636 5638 5641 5644 5646 5649 5652 5655 5658 5661 5664 5666 5669 5671 5673 5675 5677 5679 5681 5684 5686 5688 5690 5692 5693 5695 5696 5697 5698 5700 5701 5702 5704 5705 5706 5707 5707 5708 5709 5710 5711 5712 5712 5712 5713 5713 5713 5713 5714 5714 5714 5715 5715 5716 5717 5717 5717 5718 5719 5718 5717 5717 5717 5717 5717 5717 5717 5717 5717 5716 5716
5609 5610 5612 5613 5615 5617 5619 5620 5621 5623 5626 5627 5629 5631 5633 5635 5637 5639 5642 5645 5647 5650 5653 5656 5659 5661 5664 5666 5669 5671 5673 5674 5676 5678 5681 5683 5685 5687 5688 5690 5691 5693 5694 5695 5696 5698 5699 5700 5701 5702 5702 5703 5704 5705 5706 5707 5707 5707 5707 5708 5708 5708 5708 5709 5709 5710 5710 5710 5710 5711 5712 5711 5712 5713 5713 5713 5713 5712 5712 5712 5713 5713 5713 5712 5712 5712
5609 5610 5611 5613 5615 5617 5618 5620 5622 5623 5625 5627 5629 5630 5632 5634 5636 5638 5640 5642 5645 5648 5651 5653 5656 5659 5661 5664 5666 5668 5670 5672 5673 5675 5678 5680 5682 5683 5685 5687 5688 5689 5691 5692 5693 5694 5695 5696 5696 5697 5698 5699 5700 5701 5702 5702 5702 5702 5702 5703 5703 5704 5704 5704 5705 5705 5705 5705 5705 5706 5706 5706 5706 5706 5707 5708 5708 5707 5706 5707 5708 5708 5708 5708 5707 5707
5609 5610 5611 5612 5614 5616 5618 5619 5621 5622 5624 5626 5627 5629 5630 5632 5634 5636 5638 5640 5643 5645 5648 5650 5653 5655 5658 5660 5662 5665 5667 5669 5670 5672 5674 5676 5678 5680 5681 5683 5684 5685 5687 5688 5689 5690 5691 5692 5692 5693 5694 5695 5696 5697 5697 5697 5697 5697 5698 5698 5698 5699 5700 5700 5700 5700 5700 5700 5700 5700 5700 5701 5701 5701 5701 5702 5702 5702 5702 5702 5703 5704 5704 5703 5703 5702
5609 5610 5611 5612 5613 5615 5616 5618 5619 5621 5623 5624 5625 5627 5628 5630 5632 5634 5636 5638 5641 5643 5645 5647 5649 5652 5654 5656 5659 5661 5663 5665 5667 5669 5670 5672 5674 5675 5677 5678 5680 5681 5682 5684 5685 5686 5687 5687 5687 5688 5689 5690 5691 5692 5692 5693 5693 5693 5693 5693 5693 5694 5695 5695 5696 5696 5696 5695 5695 5695 5695 5696 5696 5696 5697 5697 5697 5697 5698 5698 5699 5699 5699 5699 5698 5697